Hourly Weather Roundup
Issued by NWS

Home | Current Version | Previous Version | Text Only | Print | Product List | Glossary On
Versions: 1 2 3 4 5 6 7 8 9 10 11 12 13 14 15 16 17 18 19 20 21 22 23 24 25 26 27 28 29 30 31 32 33 34 35 36 37 38 39 40 41 42 43 44 45 46 47 48 49 50
286
NZUS43 KILX 042310
HWRCRS

CRS HOURLY WEATHER ROUNDUP
NATIONAL WEATHER SERVICE, LINCOLN IL
600 PM CDT WED MAY 04 2016


CITY           SKY/WX    TMP DP  RH WIND       PRES   REMARKS
CHAMPAIGN      CLOUDY    54  41  61 NW15      29.83R
LAWRENCEVILLE  PTSUNNY   58  41  53 N25G35    29.80R
PEORIA         PTSUNNY   61  33  35 NW12G24   29.84S
SPRINGFIELD    MOSUNNY   63  37  38 N18G24    29.85S
$$


CITY           SKY/WX    TMP DP  RH WIND       PRES   REMARKS
BLOOMINGTON    CLOUDY    55  42  61 N12       29.84S
DECATUR        CLOUDY    57  40  52 N14       29.84S
EFFINGHAM      CLOUDY    57  42  56 NW15G22   29.85R
FLORA          PTSUNNY   62  38  42 N16G26    29.83R
GALESBURG      PTSUNNY   61  33  34 NW20G29   29.86R
JACKSONVILLE   PTSUNNY   62  33  33 NW16      29.85F
LACON          CLOUDY    58  37  44 N9        29.83R
LINCOLN        MOSUNNY   60  40  48 N8        29.84F
LITCHFIELD     MOSUNNY   59  39  47 N17       29.85S

CITY           SKY/WX    TMP DP  RH WIND       PRES   REMARKS
MACOMB         PTSUNNY   64  33  31 NW20G32   29.88S
MATTOON        LGT RAIN  50  43  77 N13       29.83R
MOLINE         MOSUNNY   62  32  32 N14       29.84R
OLNEY          CLOUDY    55  41  58 N17G28    29.83R
PARIS          PTSUNNY   54  41  60 N9        29.82S
PONTIAC        CLOUDY    57  43  58 NW10      29.83S
QUINCY         SUNNY     62  35  36 NW20G28   29.89R
RANTOUL        CLOUDY    56  42  57 N12       29.82S
ROBINSON       PTSUNNY   55  40  57 N20G29    29.82R
TAYLORVILLE    CLOUDY    58  39  49 N16       29.85S
TERRE HAUTE    CLOUDY    55  40  56 NW14G21   29.80R
$$


CITY           SKY/WX    TMP DP  RH WIND       PRES   REMARKS
BURLINGTON     MOSUNNY   62  33  33 N15G26    29.87S
CHICAGO        CLOUDY    49  38  65 NE12      29.82R
DES MOINES     MOSUNNY   67  30  25 NW18G30   29.94F
EVANSVILLE     PTSUNNY   57  43  59 NW14G26   29.80R
INDIANAPOLIS   PTSUNNY   51  37  58 NW16G22   29.76R
KANSAS CITY    SUNNY     68  38  33 N14       29.97S
MILWAUKEE      PTSUNNY   43  35  73 N16G23    29.84R
ST LOUIS       MOSUNNY   64  36  35 NW15G22   29.86R
$$





USA.gov is the U.S. government's official web portal to all federal, state and local government web resources and services.